Change the Weather History Date:

Saturday, August 23, 2014

  Actual Average (KCEW) Record (KCEW)
Temperature  
Mean Temperature 90 °F -  
Max Temperature 102 °F 92 °F 100 °F (2011)
Min Temperature 79 °F 70 °F 62 °F (1997)
Cooling Degree Days 26    
Growing Degree Days 40 (Base 50)    
Moisture  
Dew Point 73 °F    
Average Humidity 62    
Maximum Humidity 88    
Minimum Humidity 35    
Precipitation  
Precipitation 0.00 in - - ()
Sea Level Pressure  
Sea Level Pressure 29.95 in    
Wind  
Wind Speed 2 mph (NNE)    
Max Wind Speed 9 mph    
Max Gust Speed -    
Visibility 10 miles    
Events      
Averages and records for this station are not official NWS values.
T = Trace of Precipitation, MM = Missing Value Source: NWS Daily Summary

Daily Weather History Graph

Daily Weather History Graph

Search for Another Location

Airport or City:

Trip Planner

Search our weather history database for the weather conditions in past years. The results will help you decide how hot, cold, wet, or windy it might be!

Date:

Astronomy

Aug. 23, 2014 Rise Set
Actual Time 6:16 AM CDT 7:19 PM CDT
Civil Twilight 5:50 AM CDT 7:44 PM CDT
Nautical Twilight 5:21 AM CDT 8:14 PM CDT
Astronomical Twilight 4:50 AM CDT 8:45 PM CDT
Moon 4:34 AM CDT (8/23) 6:03 PM CDT (8/23)
Length of Visible Light 13h 53m
Length of Day
13h 03m
Waning Crescent, 3% of the Moon is Illuminated
Aug 23
Waning Crescent
Aug 25
New
Sep 2
First Quarter
Sep 8
Full
Sep 15
Last Quarter

Hourly Weather History & Observations

Time (CDT) Temp. Heat Index Dew Point Humidity Pressure Visibility Wind Dir Wind Speed Gust Speed Precip Events Conditions
12:56 AM 82.0 °F 89.4 °F 75.9 °F 82% 29.99 in 10.0 mi Calm Calm - N/A   Clear
1:56 AM 81.0 °F 86.7 °F 75.0 °F 82% 29.98 in 9.0 mi Calm Calm - N/A   Clear
2:56 AM 79.0 °F - 75.0 °F 88% 29.97 in 9.0 mi Calm Calm - N/A   Clear
3:56 AM 80.1 °F 84.5 °F 73.9 °F 81% 29.97 in 10.0 mi Calm Calm - N/A   Clear
4:56 AM 79.0 °F - 73.9 °F 84% 29.98 in 10.0 mi Calm Calm - N/A   Clear
5:56 AM 79.0 °F - 73.0 °F 82% 29.99 in 10.0 mi Calm Calm - N/A   Clear
6:56 AM 79.0 °F - 73.9 °F 84% 30.01 in 10.0 mi Calm Calm - N/A   Clear
7:56 AM 84.0 °F 91.2 °F 73.9 °F 72% 30.02 in 10.0 mi Calm Calm - N/A   Clear
8:56 AM 90.0 °F 100.2 °F 75.0 °F 61% 30.01 in 10.0 mi NNE 4.6 mph - N/A   Clear
9:56 AM 96.1 °F 107.1 °F 73.9 °F 49% 30.01 in 10.0 mi NNE 6.9 mph - N/A   Clear
10:56 AM 98.1 °F 107.2 °F 72.0 °F 43% 30.00 in 10.0 mi NE 4.6 mph - N/A   Clear
11:56 AM 98.1 °F 106.5 °F 71.1 °F 42% 29.99 in 10.0 mi NNE 4.6 mph - N/A   Scattered Clouds
12:56 PM 99.0 °F 108.5 °F 72.0 °F 42% 29.97 in 10.0 mi NNW 5.8 mph - N/A   Scattered Clouds
1:56 PM 100.0 °F 108.6 °F 71.1 °F 39% 29.95 in 10.0 mi NE 9.2 mph - N/A   Partly Cloudy
2:56 PM 102.0 °F 111.3 °F 71.1 °F 37% 29.93 in 10.0 mi NNE 8.1 mph - N/A   Clear
3:56 PM 102.0 °F 109.6 °F 70.0 °F 35% 29.91 in 10.0 mi NNE 9.2 mph - N/A   Partly Cloudy
4:56 PM 100.0 °F 107.8 °F 70.0 °F 38% 29.89 in 10.0 mi NNE 8.1 mph - N/A   Clear
5:56 PM 99.0 °F 106.2 °F 70.0 °F 39% 29.88 in 10.0 mi NNE 6.9 mph - N/A   Clear
6:56 PM 95.0 °F 103.2 °F 72.0 °F 47% 29.87 in 10.0 mi North 4.6 mph - N/A   Clear
7:56 PM 87.1 °F 94.5 °F 73.0 °F 63% 29.88 in 10.0 mi Calm Calm - N/A   Clear
8:56 PM 84.9 °F 91.4 °F 73.0 °F 67% 29.91 in 10.0 mi Calm Calm - N/A   Clear
9:56 PM 84.0 °F 91.9 °F 75.0 °F 74% 29.91 in 10.0 mi Calm Calm - N/A   Clear
10:56 PM 82.9 °F 89.4 °F 73.9 °F 74% 29.91 in 10.0 mi Calm Calm - N/A   Clear
11:56 PM 82.0 °F 87.9 °F 73.9 °F 76% 29.90 in 10.0 mi Calm Calm - N/A   Clear